This is the latest recevied weather packets stored in our database for station/object WX7FGZ-6. If no packets are shown the sender has not sent any weather packets the latest 10 day(s).
| Time | Temp. | Humidity | Pressure | Rain* | Wind** | Luminosity | Snow |
|---|---|---|---|---|---|---|---|
| 1777974151 | -4.44° C | 86% | 1012.8 hPa | 0 mm | - | - | - |
| 1777973610 | -4.44° C | 84% | 1012.8 hPa | 0 mm | - | - | - |
| 1777973310 | -4.44° C | 83% | 1012.9 hPa | 0 mm | - | - | - |
| 1777973010 | -4.44° C | 83% | 1013.1 hPa | 0 mm | - | - | - |
| 1777972748 | -4.44° C | 82% | 1013.1 hPa | 0 mm | - | - | - |
| 1777972710 | -4.44° C | 82% | 1013.1 hPa | 0 mm | - | - | - |
| 1777972236 | -4.44° C | 82% | 1012.7 hPa | 0 mm | - | - | - |
| 1777971936 | -4.44° C | 81% | 1012.8 hPa | 0 mm | - | - | - |
| 1777971508 | -4.44° C | 78% | 1012.8 hPa | 0 mm | - | - | - |
| 1777971240 | -4.44° C | 81% | 1012.8 hPa | 0 mm | - | - | - |
| 1777971208 | -4.44° C | 81% | 1012.8 hPa | 0 mm | - | - | - |
| 1777971164 | -4.44° C | 78% | 1012.9 hPa | 0 mm | - | - | - |
| 1777970908 | -4.44° C | 78% | 1012.9 hPa | 0 mm | - | - | - |
| 1777970608 | -4.44° C | 66% | 1012.7 hPa | 0 mm | - | - | - |
| 1777970077 | -4.44° C | 53% | 1012.8 hPa | 0 mm | - | - | - |
| 1777969777 | -4.44° C | 50% | 1013.5 hPa | 0 mm | - | - | - |
| 1777969175 | -4.44° C | 51% | 1013.3 hPa | 0 mm | - | - | - |
| 1777968875 | -4.44° C | 55% | 1013.2 hPa | 0 mm | - | - | - |
| 1777968810 | -4.44° C | 55% | 1013.1 hPa | 0 mm | - | - | - |
| 1777968575 | -4.44° C | 55% | 1013.1 hPa | 0 mm | - | - | - |
| 1777968275 | -4.44° C | 59% | 1013.1 hPa | 0 mm | - | - | - |
| 1777967975 | -4.44° C | 61% | 1013.1 hPa | 0 mm | - | - | - |
| 1777967675 | -4.44° C | 62% | 1013.3 hPa | 0 mm | - | - | - |
| 1777967375 | -4.44° C | 63% | 1013.2 hPa | 0 mm | - | - | - |
| 1777967075 | -4.44° C | 64% | 1013.1 hPa | 0 mm | - | - | - |
* Rain latest hour (hover to see other rain measurements)
** Current wind speed in m/s (hover to see current wind gust speed)